Theta_e
323 324 324 323 322 321 323 323 323 324 324 322 321 321 321 321 321 310 304 317 324 331 326 317 317 316 313 310 314 308 297 294 297 299 301 302 300 302 304 307 310 314 310 315 320
322 323 324 324 324 323 322 323 323 323 324 322 320 320 318 320 311 306 314 325 328 331 315 313 311 314 303 305 308 302 295 296 302 302 301 302 299 300 300 302 306 311 316 319 320
322 321 322 323 324 323 323 323 323 323 323 322 320 318 318 318 296 294 323 327 326 326 316 315 314 313 302 303 303 301 295 299 304 305 305 304 302 305 301 298 302 306 313 317 316
321 321 321 322 321 323 323 323 323 323 323 321 318 317 319 312 282 308 327 330 331 320 314 310 311 306 300 298 302 297 303 302 304 304 303 301 305 305 302 304 307 307 317 317 317
319 320 320 320 321 323 322 323 323 323 322 321 318 317 311 298 298 310 321 324 319 315 310 307 305 305 300 300 300 298 300 304 302 303 302 303 302 302 303 306 308 313 318 317 317
317 318 319 319 320 321 322 322 323 323 323 321 318 318 304 286 305 310 315 318 316 313 310 310 306 308 304 301 298 299 300 300 303 302 302 300 300 303 304 305 306 307 313 316 316
317 317 317 319 319 320 321 322 322 322 322 321 318 312 302 293 308 308 309 314 316 313 308 311 311 308 305 299 303 302 297 298 301 302 301 301 297 299 302 305 304 304 304 307 314
316 316 317 317 319 320 320 320 321 321 321 320 319 305 293 304 306 306 307 314 317 316 313 312 312 309 306 306 300 295 295 290 296 301 301 300 289 297 302 301 302 302 301 301 303
314 315 316 316 317 319 319 319 320 320 320 318 309 298 293 309 300 303 306 310 312 313 312 315 310 303 302 296 292 291 285 289 293 299 297 298 292 299 300 299 299 298 299 300 301
314 314 315 316 316 317 318 319 319 318 315 312 309 298 299 297 302 303 305 307 308 307 305 303 302 296 294 294 283 287 286 288 287 293 295 293 292 297 300 298 298 298 299 299 301
313 314 315 315 316 317 314 309 305 302 305 298 298 296 299 302 305 301 307 306 306 302 292 296 292 289 292 294 292 290 288 287 291 296 292 291 291 294 297 295 295 296 297 299 302
312 314 314 315 316 316 310 301 305 305 296 302 302 299 302 303 298 300 308 300 299 292 296 294 289 292 295 295 294 293 287 286 292 295 292 291 291 295 297 298 297 297 298 298 300
311 312 313 314 315 312 304 303 309 307 295 296 301 299 298 300 296 297 303 301 296 292 292 288 289 295 294 291 292 293 291 288 289 292 292 288 286 288 292 293 295 296 299 298 298
311 312 313 314 307 307 302 306 308 306 288 290 293 298 299 299 293 302 304 300 294 291 293 291 294 292 291 289 292 287 293 293 291 289 282 288 279 284 288 291 292 294 293 294 295
311 311 312 313 305 302 304 305 305 303 275 290 293 303 298 294 294 295 304 299 291 291 290 286 290 290 289 290 294 289 294 292 290 286 282 281 281 282 286 287 290 292 292 293 294
311 311 311 308 306 306 307 305 301 284 275 286 292 291 291 294 293 295 297 300 297 291 289 289 292 291 291 293 295 296 292 290 288 285 279 282 281 278 284 286 287 289 291 293 295
310 310 308 306 299 307 307 301 283 276 285 284 287 290 289 290 291 292 291 291 286 281 282 287 288 290 293 290 292 293 288 275 274 277 275 281 280 282 288 289 289 290 292 292 294
309 309 308 305 307 307 303 289 277 280 282 285 287 289 286 290 290 290 289 287 289 284 281 280 277 288 292 290 287 289 288 276 270 273 275 282 279 282 289 292 293 292 292 293 292
308 304 303 303 307 306 295 281 281 282 284 284 287 284 285 289 288 289 289 288 290 287 281 279 279 287 289 292 292 286 286 287 279 277 274 278 281 287 290 291 290 290 292 293 291
300 298 299 305 306 301 288 284 279 286 286 286 281 284 281 285 283 287 287 290 289 292 289 285 279 285 289 291 291 289 290 283 284 272 270 276 278 281 286 287 289 289 291 288 292
298 291 300 305 303 292 282 284 284 288 289 283 280 282 284 283 283 284 284 286 291 289 292 287 284 283 288 286 285 288 286 286 284 280 274 271 276 284 287 288 288 289 290 289 293
294 285 300 304 287 286 283 285 289 286 288 286 285 283 283 285 283 282 283 285 291 291 287 289 284 277 282 287 290 290 287 287 280 276 279 278 279 286 286 288 289 289 289 290 293
288 287 301 299 282 283 284 284 286 287 287 285 284 285 285 284 282 285 284 289 291 290 288 290 284 274 276 282 285 285 288 289 288 284 280 277 280 288 287 289 291 291 291 293 292
288 283 290 292 288 285 279 284 283 289 288 287 286 287 284 283 284 284 284 287 290 291 295 294 284 281 277 279 283 283 285 288 287 283 282 283 284 287 287 288 291 291 292 292 290
286 284 286 282 283 283 282 282 281 283 287 288 286 285 283 279 282 282 286 285 287 292 292 291 279 282 283 283 284 283 284 286 285 286 282 284 284 288 288 289 290 291 292 292 292
285 284 285 287 286 283 284 281 283 284 284 285 282 285 284 282 284 283 284 284 284 287 288 288 279 281 279 284 283 280 283 284 286 287 287 287 286 293 291 290 289 290 291 292 292
287 286 285 287 285 283 281 280 284 284 285 287 287 286 285 286 287 287 288 288 287 285 286 284 281 281 278 282 280 278 282 284 285 288 287 283 288 293 291 291 291 292 291 292 293
Wind_Speed
8 14 14 14 12 11 8 8 6 6 5 2 4 6 8 10 10 3 3 3 4 9 10 7 5 6 4 3 3 2 5 2 4 5 3 2 2 1 0 4 2 2 1 2 7
9 8 14 15 12 11 10 8 7 4 5 3 2 5 8 10 3 5 7 10 7 9 5 6 5 6 3 2 2 4 4 10 4 3 2 2 2 2 2 1 1 2 1 4 7
10 7 6 11 12 13 11 10 8 6 5 3 1 3 6 6 3 4 7 8 5 4 2 1 2 1 2 2 0 3 6 4 3 0 2 1 2 1 5 3 5 5 4 5 4
11 9 7 8 9 13 13 11 9 8 7 5 1 2 3 2 4 1 9 9 4 5 1 3 2 2 3 3 1 1 3 4 3 0 2 1 4 2 4 3 3 0 5 6 8
10 10 9 9 8 11 12 12 11 9 7 5 3 0 2 0 7 6 9 6 4 3 3 2 1 2 3 2 1 2 2 3 2 1 3 3 4 2 5 4 1 5 6 8 7
12 11 10 10 10 9 11 14 11 10 9 8 6 4 2 2 1 6 6 4 3 3 2 2 1 0 1 1 4 1 1 1 1 3 3 2 3 3 6 1 6 5 7 8 8
9 12 12 10 10 10 10 11 12 11 10 10 8 2 2 10 2 6 4 2 1 3 3 2 1 3 1 0 2 1 1 3 2 3 4 4 5 9 6 4 5 7 7 6 9
9 10 12 12 10 10 9 9 12 9 10 10 8 2 6 4 3 6 2 2 3 3 2 0 2 1 1 2 4 1 4 2 3 3 3 6 7 8 5 5 10 11 8 7 9
11 10 11 14 13 10 8 8 13 13 11 11 3 4 7 4 2 2 2 2 1 2 0 2 2 3 1 4 4 3 4 5 5 5 0 6 3 7 3 6 9 9 9 9 10
12 11 11 12 14 12 8 4 7 10 8 3 2 1 4 4 2 3 1 3 3 4 4 3 1 3 2 3 6 5 2 1 2 3 2 5 8 10 11 5 10 10 10 9 9
16 14 12 13 14 14 7 4 4 5 6 4 10 3 2 2 3 2 5 3 1 4 4 1 3 8 7 5 3 4 1 3 3 4 3 7 9 11 12 6 10 11 9 12 15
18 16 14 13 15 16 7 5 4 2 5 3 2 2 1 2 3 2 5 5 4 4 4 2 9 4 2 3 2 3 1 3 6 3 2 8 16 18 17 16 11 13 14 13 9
19 19 17 15 16 13 10 15 3 4 5 4 1 7 4 1 4 8 8 5 4 5 6 5 3 9 4 3 8 10 15 4 8 6 4 7 10 11 7 4 6 10 16 9 11
20 20 19 16 8 10 9 7 5 5 2 7 6 5 4 3 4 4 6 5 2 8 7 5 4 5 5 4 6 6 6 5 4 5 4 5 11 6 7 7 5 10 8 9 9
21 22 21 19 3 10 6 10 7 3 8 11 9 3 5 7 6 0 1 4 7 6 6 6 5 8 5 6 7 5 6 7 5 4 5 3 5 6 4 6 12 10 7 8 8
21 23 23 13 8 5 11 12 5 8 9 8 7 8 9 5 2 4 4 4 3 3 2 4 2 5 8 4 10 4 3 2 2 3 8 8 8 4 5 6 4 4 6 5 5
24 24 23 10 16 10 15 11 10 14 4 7 7 8 16 9 6 6 8 11 7 6 7 3 5 0 3 5 1 5 5 0 2 3 8 0 4 5 9 8 7 8 10 6 4
27 25 23 12 10 14 13 12 15 11 7 3 8 10 12 11 8 5 11 10 7 3 4 7 4 11 6 7 7 11 8 7 9 6 5 1 9 8 6 8 9 7 8 6 4
28 14 13 12 15 14 11 17 14 17 12 12 12 12 8 10 6 9 10 11 13 9 7 6 6 1 5 5 9 4 12 5 5 1 2 5 8 9 9 11 6 4 5 5 6
16 13 15 16 17 12 12 16 9 2 7 10 10 13 13 18 9 14 12 10 10 17 2 5 2 4 7 3 3 6 7 5 3 3 6 5 6 8 8 8 7 4 6 4 6
10 11 10 19 13 11 7 8 5 10 9 6 4 8 15 13 11 12 10 2 18 11 16 6 3 1 7 8 16 8 7 4 5 6 5 2 7 8 9 5 8 9 7 8 7
10 13 14 17 13 8 16 4 4 6 5 5 6 5 9 13 11 8 14 7 8 11 14 8 3 4 9 2 2 13 6 7 5 5 4 3 14 1 4 5 5 0 2 5 7
11 4 13 20 15 8 4 3 2 9 7 6 5 4 4 11 8 8 7 7 6 11 12 10 5 2 7 5 3 6 15 12 12 2 13 8 12 5 6 5 4 5 7 9 7
4 6 9 9 3 10 7 5 4 2 4 4 6 5 6 7 3 15 9 5 9 9 8 14 5 8 11 5 6 6 8 20 15 12 19 15 26 13 2 6 6 5 5 6 6
2 4 2 12 6 6 5 9 10 4 2 4 4 6 8 5 11 5 14 5 2 10 11 10 6 7 12 3 3 5 9 15 18 26 19 28 21 28 11 9 9 6 5 6 8
3 4 4 13 12 11 6 6 17 9 11 8 6 6 4 8 13 17 8 6 7 5 11 5 8 6 10 12 11 3 4 10 20 26 19 27 24 32 6 8 9 9 8 10 12
2 3 6 12 12 10 8 8 11 13 2 6 8 5 5 4 5 3 5 3 4 9 12 6 7 6 17 10 5 8 19 21 14 17 18 20 31 29 15 14 16 16 11 14 14
Wind_Direction
257 231 211 207 205 216 217 211 214 213 229 281 342 349 347 345 331 346 263 223 327 338 333 320 38 351 24 30 26 126 73 183 215 162 216 293 159 37 303 116 55 338 160 341 119
254 260 223 209 202 202 211 210 201 201 204 202 333 339 342 345 329 269 255 294 313 348 19 18 359 358 34 15 13 94 142 200 215 210 166 159 159 161 106 102 211 297 33 80 128
248 236 223 236 214 194 199 203 201 191 185 199 276 326 337 334 328 259 330 314 256 260 314 297 291 58 56 18 184 153 193 205 211 115 12 108 135 182 129 226 217 207 179 147 157
242 237 219 195 241 217 197 196 194 194 189 174 189 329 337 332 229 341 353 6 181 166 10 358 17 105 134 195 220 195 229 179 205 169 64 357 317 280 180 202 125 85 157 163 175
240 233 222 221 213 220 215 198 191 189 179 164 163 138 36 113 256 332 331 9 49 65 92 41 79 114 168 196 84 185 253 208 266 303 303 342 268 255 269 217 236 79 145 189 206
247 230 225 220 221 211 210 207 192 182 175 169 159 135 99 226 183 349 350 1 69 87 133 145 88 290 164 149 174 264 218 308 325 279 288 231 310 144 257 193 227 198 202 209 216
253 242 228 225 223 219 208 211 188 185 177 170 156 112 98 243 7 324 360 318 9 120 136 197 134 54 33 250 305 147 168 340 237 203 243 167 282 226 234 295 270 222 226 230 233
239 242 234 227 224 224 219 208 185 189 177 166 149 78 249 267 316 309 318 21 58 87 99 58 162 134 149 298 20 69 69 108 252 195 247 144 254 262 195 209 254 271 271 245 247
235 234 235 229 223 220 220 208 186 179 173 146 100 114 266 324 280 272 190 99 2 64 26 330 119 131 33 92 32 359 236 212 328 217 321 183 256 270 123 195 256 274 274 273 274
227 229 229 232 215 210 199 166 209 153 145 103 81 106 259 234 196 130 179 71 80 101 50 47 73 127 98 117 202 221 276 359 252 333 51 278 259 272 288 243 256 255 272 275 262
226 221 219 224 217 203 175 109 146 213 168 169 182 204 102 253 137 179 138 104 46 112 146 240 181 199 193 194 138 101 267 265 287 282 295 260 274 265 273 274 263 270 252 258 259
228 218 217 214 216 206 156 203 200 251 117 267 211 250 291 192 111 171 132 158 168 159 121 122 235 219 91 151 168 146 202 286 282 272 249 293 286 281 267 260 235 251 259 250 256
230 222 220 210 210 205 192 199 160 291 112 191 228 218 222 134 192 184 149 153 143 160 171 166 225 195 164 141 218 233 245 221 253 320 279 315 273 252 280 255 246 243 250 254 246
227 221 214 207 203 201 198 157 121 337 235 172 206 235 175 178 250 170 171 135 168 174 166 218 238 143 143 170 162 237 190 193 264 332 261 44 292 260 267 284 278 273 254 253 265
220 218 212 195 166 195 149 132 122 42 231 164 163 128 169 174 144 210 288 57 164 173 149 228 180 192 174 188 175 212 162 194 201 232 307 204 258 274 335 285 264 270 314 278 271
220 211 208 203 181 199 141 128 106 232 211 162 135 162 156 187 130 99 118 69 134 123 90 219 319 160 195 163 172 169 206 215 107 177 265 204 183 251 216 214 282 287 321 3 19
218 210 198 188 202 177 139 150 184 210 136 161 162 164 177 168 154 154 166 181 162 154 208 157 212 328 137 110 122 177 138 248 348 213 231 283 201 257 258 237 226 275 289 300 337
217 207 204 195 156 167 159 194 204 169 189 153 166 157 185 143 194 159 155 189 227 107 122 166 274 182 187 176 176 190 189 162 195 199 259 352 239 251 232 267 255 255 269 288 254
208 202 202 190 157 172 188 204 199 179 159 148 137 161 180 178 147 167 191 199 203 179 165 159 258 134 193 151 145 203 209 163 100 0 11 231 289 287 280 290 308 258 277 295 146
192 191 206 172 159 185 214 197 148 172 114 137 150 179 174 186 156 183 175 198 210 195 170 209 193 204 205 135 222 168 161 187 171 226 246 257 263 238 304 288 308 313 234 144 142
172 184 183 159 166 194 203 204 135 164 134 124 140 147 187 177 174 187 193 261 196 187 184 175 160 44 133 202 192 177 212 198 172 179 199 272 258 222 237 274 283 295 267 178 165
164 192 176 148 182 192 222 160 135 160 137 129 118 108 154 166 179 186 204 188 199 147 186 181 163 188 212 196 207 223 212 199 183 234 254 239 254 205 250 260 202 327 58 162 172
159 147 187 158 182 182 129 126 264 144 171 150 132 138 166 161 178 191 186 199 137 161 169 167 205 118 328 356 13 199 221 221 226 97 224 218 260 338 205 220 251 166 160 162 171
123 184 158 159 68 184 155 173 107 346 98 119 120 104 108 167 183 194 215 180 172 178 175 172 168 211 218 192 148 201 204 218 213 233 247 239 261 252 327 230 225 177 193 187 185
108 259 105 155 155 128 121 155 164 144 60 11 65 167 152 148 187 187 211 159 156 194 184 178 215 202 243 259 222 225 209 210 208 230 227 248 246 260 206 203 211 203 190 200 216
135 160 21 154 139 143 160 182 166 170 164 179 166 165 182 166 188 198 172 170 187 176 184 199 233 168 253 238 228 257 240 217 219 230 238 250 257 256 222 193 226 232 215 217 226
200 308 100 134 149 151 187 160 180 127 323 167 170 127 178 207 126 91 128 120 130 160 193 185 197 180 243 225 142 235 232 230 238 234 222 232 242 265 249 217 216 228 219 225 230